Location: Unspecified
(0.0000°N, 0.0000°E)
Time: 06:15:49
(UTC+02:00)

ISS - All Passes

Search period start: 25 July 2016 00:00
Search period end: 04 August 2016 00:00
Orbit: 401 x 404 km, 51.6° (Epoch: 24 July)

Date Brightness Start Highest point End Pass type
(mag) Time Alt. Az. Time Alt. Az. Time Alt. Az.
25 Jul - 08:51:41 10° NNW 08:54:55 80° NE 08:58:10 10° SE daylight
25 Jul - 20:25:26 10° SSW 20:28:33 43° SE 20:31:39 10° NE visible
26 Jul - 07:59:19 10° N 08:02:03 25° NE 08:04:49 10° ESE daylight
26 Jul - 19:33:35 10° SSE 19:35:41 16° SE 19:37:45 10° E daylight
26 Jul - 21:09:58 10° W 21:11:54 15° NW 21:13:49 10° NNW visible
27 Jul - 08:42:43 10° WNW 08:45:24 24° SW 08:48:06 10° S daylight
27 Jul - 20:15:56 10° SW 20:19:01 40° NW 20:22:05 10° NNE daylight
28 Jul - 07:49:18 10° NW 07:52:31 73° SW 07:55:46 10° SSE daylight
28 Jul - 19:22:57 10° SSW 19:26:09 61° SE 19:29:21 10° NE daylight
29 Jul - 06:56:41 10° NNW 06:59:39 34° NE 07:02:39 10° ESE visible
29 Jul - 18:30:45 10° S 18:33:16 21° SE 18:35:47 10° ENE daylight
29 Jul - 20:08:23 10° WNW 20:09:30 11° NW 20:10:36 10° NW daylight
30 Jul - 06:05:13 10° NNE 06:06:46 13° NE 06:08:19 10° E visible
30 Jul - 07:40:39 10° W 07:43:00 18° SW 07:45:20 10° S visible
30 Jul - 19:13:43 10° WSW 19:16:36 29° NW 19:19:30 10° N daylight
31 Jul - 06:46:57 10° NW 06:50:06 52° SW 06:53:17 10° SSE visible
31 Jul - 18:20:28 10° SW 18:23:44 85° ESE 18:26:58 10° NE daylight
01 Aug - 05:54:06 10° NNW 05:57:13 46° NE 06:00:22 10° SE night (unlit)
01 Aug - 17:28:01 10° S 17:30:51 27° SE 17:33:39 10° ENE daylight
02 Aug - 05:02:11 10° NNE 05:04:20 17° NE 05:06:30 10° E night (unlit)
02 Aug - 06:38:45 10° W 06:40:34 14° SW 06:42:23 10° SSW night (unlit)
02 Aug - 16:37:17 10° SE 16:37:55 10° SE 16:38:34 10° ESE daylight
02 Aug - 18:11:32 10° WSW 18:14:10 22° NW 18:16:47 10° N daylight
03 Aug - 05:44:37 10° NW 05:47:39 37° SW 05:50:43 10° SSE night (unlit)
03 Aug - 17:18:02 10° SW 17:21:16 68° NW 17:24:30 10° NNE daylight
